Satellite-Ground Cal/Val Region Overpasses Predictions

Prediction of Satellite NPP Overpassing Cal/Val Region: PacNW

Region Location: (Latitude: 10.00, Longitude: 139.50) to (Latitude: 22.70, Longitude: 165.60).

Table of predicted overpasses for the next 14.0 days since TLE Epoch: 2/21/2017
Interval Starting Time Starting Location Ending Time Ending Location
1 02/21/2017 15:36:39 ( 22.65, 150.73) 02/21/2017 15:40:14 ( 10.03, 147.73)
2 02/22/2017 02:45:43 ( 10.04, 158.26) 02/22/2017 02:49:18 ( 22.66, 155.26)
3 02/22/2017 15:17:36 ( 22.65, 155.49) 02/22/2017 15:21:11 ( 10.02, 152.49)
4 02/23/2017 02:26:41 ( 10.04, 163.02) 02/23/2017 02:30:16 ( 22.66, 160.02)
5 02/23/2017 14:58:34 ( 22.64, 160.25) 02/23/2017 15:02:09 ( 10.02, 157.25)
6 02/24/2017 02:10:18 ( 19.38, 165.59) 02/24/2017 02:11:14 ( 22.66, 164.78)
7 02/24/2017 03:49:09 ( 10.05, 142.40) 02/24/2017 03:52:37 ( 22.26, 139.50)
8 02/24/2017 14:39:30 ( 22.70, 165.03) 02/24/2017 14:43:06 ( 10.02, 162.01)
9 02/24/2017 16:21:00 ( 22.69, 139.65) 02/24/2017 16:21:10 ( 22.10, 139.50)
10 02/25/2017 03:30:06 ( 10.05, 147.16) 02/25/2017 03:33:41 ( 22.68, 144.16)
11 02/25/2017 16:01:58 ( 22.69, 144.41) 02/25/2017 16:05:34 ( 10.01, 141.39)
12 02/26/2017 03:11:04 ( 10.06, 151.92) 02/26/2017 03:14:39 ( 22.68, 148.92)
13 02/26/2017 15:42:55 ( 22.68, 149.17) 02/26/2017 15:46:31 ( 10.00, 146.15)
14 02/27/2017 02:52:00 ( 10.00, 156.70) 02/27/2017 02:55:36 ( 22.68, 153.68)
15 02/27/2017 15:23:53 ( 22.68, 153.93) 02/27/2017 15:27:28 ( 10.06, 150.92)
16 02/28/2017 02:32:58 ( 10.01, 161.45) 02/28/2017 02:36:34 ( 22.69, 158.44)
17 02/28/2017 15:04:50 ( 22.67, 158.68) 02/28/2017 15:08:25 ( 10.05, 155.68)
18 03/01/2017 02:14:41 ( 12.72, 165.59) 03/01/2017 02:17:31 ( 22.69, 163.20)
19 03/01/2017 03:55:25 ( 10.02, 140.84) 03/01/2017 03:57:03 ( 15.78, 139.50)
20 03/01/2017 14:45:48 ( 22.67, 163.44) 03/01/2017 14:49:23 ( 10.05, 160.44)
21 03/02/2017 03:36:23 ( 10.03, 145.60) 03/02/2017 03:39:58 ( 22.65, 142.59)
22 03/02/2017 14:29:52 ( 11.75, 165.59) 03/02/2017 14:30:21 ( 10.04, 165.20)
23
